This demonstration page uses our WeatherBlox Daily Observations layout. Learn more.

Left ArrowRight Arrow

Hourly Observations for August 16, 2015

Temp ( °F °C ) Dew Point ( °F °C ) Humidity (%) Winds ( mph kmh ) Pressure ( in mb ) Visibility ( mi km ) Precip ( " mm )
12:54 am 00:54 Clear 75 23.9 64 17.8 69 69 S 18 30 29.98 1015 10 16.0934 0 0
1:54 am 01:54 Clear 74 23.3 64 17.8 71 71 S 13 20 29.99 1016 10 16.0934 0 0
2:54 am 02:54 Clear 73 22.8 63 17.2 71 71 S 14 22 29.98 1015 10 16.0934 0 0
3:54 am 03:54 Clear 71 21.7 64 17.8 79 79 S 12 19 29.96 1015 10 16.0934 0 0
4:54 am 04:54 Clear 72 22.2 63 17.2 73 73 SSW 10 17 29.96 1014 10 16.0934 0 0
5:54 am 05:54 Clear 71 21.7 63 17.2 76 76 S 8 13 29.98 1015 10 16.0934 0 0
6:54 am 06:54 Sunny 70 21.1 62 16.7 76 76 S 9 15 29.98 1015 10 16.0934 0 0
7:54 am 07:54 Partly Cloudy 72 22.2 63 17.2 73 73 SSW 5 7 30.01 1016 10 16.0934 0 0
8:54 am 08:54 Mostly Sunny 77 25 64 17.8 64 64 S 10 17 30.01 1016 10 16.0934 0 0
9:54 am 09:54 Sunny 80 26.7 64 17.8 58 58 SSW 16 26 29.97 1015 10 16.0934 0 0
10:54 am 10:54 Sunny 85 29.4 65 18.3 51 51 SSW 17 28 29.96 1015 10 16.0934 0 0
11:54 am 11:54 Sunny 85 29.4 65 18.3 51 51 SSW 14 22 29.96 1015 10 16.0934 0 0
12:54 pm 12:54 Sunny 90 32.2 66 18.9 45 45 S 16 26 29.94 1014 10 16.0934 0 0
1:54 pm 13:54 Sunny 89 31.7 66 18.9 47 47 S 16 26 29.94 1014 10 16.0934 0 0
2:54 pm 14:54 Sunny 90 32.2 67 19.4 47 47 S 15 24 29.93 1014 10 16.0934 0 0
3:54 pm 15:54 Sunny 93 33.9 67 19.4 42 42 S 18 30 29.92 1013 10 16.0934 0 0
4:54 pm 16:54 Sunny 92 33.3 66 18.9 43 43 S 16 26 29.91 1013 10 16.0934 0 0
5:54 pm 17:54 Sunny 92 33.3 66 18.9 43 43 S 14 22 29.92 1013 10 16.0934 0 0
6:54 pm 18:54 Sunny 87 30.6 63 17.2 45 45 S 15 24 29.92 1013 10 16.0934 0 0
7:54 pm 19:54 Sunny 84 28.9 63 17.2 49 49 S 10 17 29.91 1013 10 16.0934 0 0
8:54 pm 20:54 Clear 81 27.2 65 18.3 58 58 S 5 7 29.93 1014 10 16.0934 0 0
9:54 pm 21:54 Mostly Cloudy 82 27.8 65 18.3 56 56 Calm 29.97 1015 10 16.0934 0 0
10:54 pm 22:54 Clear 76 24.4 68 20 77 77 NNW 7 11 29.97 1015 10 16.0934 0 0
11:54 pm 23:54 Cloudy 76 24.4 68 20 77 77 N 8 13 29.97 1015 10 16.0934 0 0

Powered by AerisWeather